Погода в Калиновке

Россия / Республика Крым     45°44′52″N   34°20′05″E
темп.,
°C
ветер,
м/с
пор.,
м/с
влажн.,
%
обл.,
%
осадки,
мм/ч
давл.,
гПа
погр.,
м
26 февраля, пт
пт2600:00+3зюз4995100 0.0 1031210
03:00+4зюз4895100 0.2 1029202
06:00+4зюз4895100 0.1 1029176
09:00+6зюз589198 0.1 1028279
12:00+11з587346 0.0 1027604
15:00+15з795823 0.0 10251027
18:00+11зюз610700 0.0 1024457
21:00+7юз613890 0.0 1023379
27 февраля, сб
сб2700:00+7юз714910 0.0 1022376
03:00+7юз714920 0.0 1020400
06:00+7юз7149212 0.0 1019405
09:00+8зюз7138712 0.0 1018462
12:00+12зюз79708 0.0 1017691
15:00+14зсз67634 0.0 1017951
18:00+9ссз588073 0.0 1016519
21:00+8сз476987 0.0 1017790
28 февраля, вс
вс2800:00+6ссз4768100 0.1 1018711
03:00+4сз3677100 0.1 1018210
06:00+4сз3685100 0.2 1019360
09:00+4ссз4685100 0.4 1020531
12:00+5ссз567298 0.2 1020840
15:00+6сз666998 0.4 1021942
18:00+5сз477392 0.3 1021845
21:00+4ссз477293 0.4 1023469
1 марта, пн
пн100:00+3сз347898 0.1 1024152
03:00+2ссз368198 0.1 1025272
06:00+1сз238593 0.1 1025124
09:00+3ссз347197 0.1 1027770
12:00+4с3359100 0.1 10271025
15:00+5с3355100 0.3 10271096
18:00+4с2256100 0.0 1028714
21:00+2св227699 0.1 102950
2 марта, вт
вт200:00+1ссв229261 0.0 103137
03:000ссв238631 0.0 103135
06:000ссв23820 0.0 103242
09:00+2с34731 0.0 1032261
12:00+5с335616 0.0 10331037
15:00+6ссз444837 0.0 10321252
18:00+4зсз46565 0.0 1030582
21:00+3з5107228 0.0 1030392